星链-4566 (STARLINK-4566 )

导读 | 豆包AI

STARLINK-4566是美国于2022年8月31日发射的星链卫星,隶属于SpaceX公司的星链互联网星座项目。星链项目旨在通过近地轨道卫星群,为全球提供高速宽带互联网服务。该卫星发射后进入预定轨道,承担着为覆盖区域提供低延迟网络连接的任务,是星链大规模组网进程中的组成部分。

Basic Information
目录编号:
53693
目录名称:
STARLINK-4566
国际标识:
2022-105AX
轨道中心:
EARTH
卫星名称:
星链-4566
卫星全名:
星链-4566 (STARLINK-4566 )
卫星状态:
在轨 (已飞行1337 天)
发射日期:
2022-08-31 UTC
国别 :
美国 (US)
星等 :
--
Orbit Information
数据来源 国际轨道数据 AOE轨道数据
星历时间 2026-04-29T12:59:54+0800
9小时前
查看轨道信息
2026-04-23T01:00:00+0800
6天前
查看轨道信息
半长轴 6927.664km 6927.641km
偏心率 0.0002529 0.0002015
轨道倾角 97.558° 97.591°
近地点辐角 78.104° 98.324°
升交点赤经 1.060° 354.683°
平近点角 282.047° 332.171°
近地点 547.774km 548.108km
远地点 551.28km 550.9km
周期 95.640分钟 95.640分钟
每日圈数 15.05645 15.056526
Detailed Information
固有亮度:
5
最大亮度:
2.5
卫星平台:
Starlink v1.5
覆盖范围:
全球
运营商:
太空探索技术公司
运营商所在国:
美国
制造商(研发单位):
太空探索技术公司
制造商所在国:
美国
使用方式:
暂无
Satellite Introduction
星链(Starlink)计划是由太空探索技术公司(SpaceX)提出的一个巨型低轨卫星互联网星座项目,计划在2019年至2024年间在太空搭建由约1.2万颗卫星组成的“星链”网络,其中1584颗将部署在地球上空550千米处的近地轨道,并从2020年开始工作。该卫星仍在工作。
2D Orbit Map
3D Orbit Map
Orbit Altitude Analysis Chart
Orbit Inclination Analysis Chart
Orbit Comprehensive Analysis Chart
View Comprehensive Chart